Location: Goettingen
(51.5300°N, 9.9433°E)
Time: 06:46:41
(UTC+01:00)

ISS - Pass Details

Date: 12 December 2019
Orbit: 411 x 421 km, 51.6° (Epoch: 15 December)

Event Time Altitude Azimuth Distance (km) Brightness Sun altitude
Rises 16:46:43 0° 283° (WNW) 2,356 0.8 -5.4°
Reaches altitude 10° 16:49:03 10° 269° (W) 1,492 0.2 -5.7°
Maximum altitude 16:51:48 24° 214° (SSW) 917 -1.1 -6.1°
Drops below altitude 10° 16:54:33 10° 158° (SSE) 1,490 -0.9 -6.5°
Sets 16:56:53 0° 144° (SE) 2,352 0.0 -6.8°
